VK5FR Weather Reports


Display with metric or nautical units.
time (UTC)temp
F
wind
direction
speed
MPH
gust
MPH
rain 1hr
in
rain 24hr
in
rain mn
in
humidity
%
barometer
mb
20260503220330 60 271 15.0 18.0 0.00 0.00 0.00 82 1010.0
20260503215827 60 249 10.0 15.0 0.00 0.00 0.00 85 1009.8
20260503215324 60 292 11.0 20.0 0.00 0.00 0.00 86 1009.8
20260503214821 59 263 15.0 24.0 0.00 0.00 0.00 87 1009.8
20260503214318 60 291 12.0 23.0 0.00 0.00 0.00 87 1009.8
20260503213810 59 292 9.0 15.0 0.00 0.00 0.00 87 1009.6
20260503213307 60 313 12.0 21.0 0.00 0.00 0.00 87 1009.4
20260503212804 60 315 12.0 24.0 0.00 0.00 0.00 87 1009.4
20260503212302 60 268 15.0 21.0 0.00 0.00 0.00 86 1009.5
20260503211759 60 285 10.0 21.0 0.00 0.00 0.00 85 1009.5
20260503211255 60 280 20.0 23.0 0.00 0.00 0.00 85 1009.6
20260503210755 60 321 13.0 18.0 0.00 0.00 0.00 84 1009.3
20260503210253 60 273 17.0 23.0 0.00 0.00 0.00 83 1009.4
20260503205748 60 257 15.0 22.0 0.00 0.00 0.00 83 1009.3
20260503205245 59 279 14.0 25.0 0.00 0.00 0.00 84 1009.2
20260503204741 59 274 18.0 24.0 0.00 0.00 0.00 85 1009.3
20260503204239 59 263 14.0 21.0 0.00 0.00 0.00 85 1009.0
20260503203736 60 253 22.0 27.0 0.00 0.00 0.00 84 1009.0
20260503203234 60 273 15.0 23.0 0.00 0.00 0.00 83 1008.8
20260503202731 60 297 15.0 23.0 0.00 0.00 0.00 83 1009.0
20260503202229 60 276 16.0 22.0 0.00 0.00 0.00 83 1008.9
20260503201726 60 278 16.0 21.0 0.00 0.00 0.00 83 1008.8
20260503201224 60 259 10.0 21.0 0.00 0.00 0.00 82 1008.7
20260503200720 60 299 11.0 23.0 0.00 0.00 0.00 82 1008.7
20260503200216 60 272 16.0 24.0 0.00 0.00 0.00 82 1008.8
20260503195713 60 281 13.0 21.0 0.00 0.00 0.00 83 1008.5
20260503195210 60 296 11.0 22.0 0.00 0.00 0.00 83 1008.5
20260503194707 60 271 15.0 17.0 0.00 0.00 0.00 82 1008.5
20260503194203 60 300 15.0 21.0 0.00 0.00 0.00 82 1008.6
20260503193700 60 321 14.0 22.0 0.00 0.00 0.00 82 1008.6
20260503193155 60 343 14.0 20.0 0.00 0.00 0.00 83 1008.5
20260503192651 60 274 22.0 27.0 0.00 0.00 0.00 83 1008.5
20260503192147 60 258 20.0 22.0 0.00 0.00 0.00 84 1008.5
20260503191644 60 285 17.0 25.0 0.00 0.00 0.00 83 1008.6
20260503191141 60 286 15.0 22.0 0.00 0.00 0.00 83 1008.4
20260503190638 60 298 18.0 23.0 0.00 0.00 0.00 83 1008.4
20260503190135 60 279 11.0 23.0 0.00 0.00 0.00 83 1008.7
20260503185631 60 311 14.0 23.0 0.00 0.00 0.00 84 1008.5
20260503185126 60 318 19.0 25.0 0.00 0.00 0.00 83 1008.5
20260503184622 60 281 14.0 21.0 0.00 0.00 0.00 83 1008.4
20260503184118 60 275 13.0 20.0 0.00 0.00 0.00 83 1008.5
20260503183615 60 314 15.0 20.0 0.00 0.00 0.00 83 1008.4
20260503183112 60 284 18.0 27.0 0.00 0.00 0.00 83 1008.5
20260503182611 60 303 19.0 29.0 0.00 0.00 0.00 82 1008.5
20260503182109 60 298 20.0 24.0 0.00 0.00 0.00 83 1008.6
20260503181605 60 292 15.0 23.0 0.00 0.00 0.00 82 1008.6
20260503181102 60 300 20.0 23.0 0.00 0.00 0.00 80 1008.6
20260503180559 60 330 20.0 25.0 0.00 0.00 0.00 80 1008.5
20260503180056 60 281 12.0 20.0 0.00 0.00 0.00 80 1008.5
20260503175553 60 275 17.0 21.0 0.00 0.00 0.00 81 1008.4
20260503175050 60 301 14.0 21.0 0.00 0.00 0.00 80 1008.5
20260503174548 60 290 15.0 22.0 0.00 0.00 0.00 81 1008.5
20260503174044 60 282 14.0 25.0 0.00 0.00 0.00 81 1008.6
20260503173539 60 266 19.0 25.0 0.00 0.00 0.00 80 1008.7
20260503173035 60 274 19.0 32.0 0.00 0.00 0.00 81 1008.7
20260503172533 60 259 16.0 23.0 0.00 0.00 0.00 81 1008.7
20260503172030 60 269 15.0 25.0 0.00 0.00 0.00 81 1008.7
20260503171526 60 287 15.0 22.0 0.00 0.00 0.00 81 1008.8
20260503171024 60 303 17.0 23.0 0.00 0.00 0.00 81 1008.7
20260503170520 60 293 22.0 26.0 0.00 0.00 0.00 81 1008.8
20260503150913 59 332 20.0 24.0 0.00 0.00 0.00 83 1008.8
20260503150409 59 267 15.0 25.0 0.00 0.00 0.00 84 1008.9
20260503131302 60 285 17.0 26.0 0.00 0.02 0.02 77 1009.6
20260503130800 60 305 20.0 24.0 0.00 0.02 0.02 77 1009.7
20260503130257 60 322 18.0 26.0 0.00 0.02 0.02 77 1009.7
20260503110651 61 267 24.0 29.0 0.00 0.02 0.02 76 1009.3
20260503110148 61 332 21.0 26.0 0.00 0.02 0.02 76 1009.2
20260503100115 61 308 23.0 31.0 0.00 0.02 0.02 75 1008.9
20260503081504 59 291 17.0 26.0 0.00 0.02 0.02 88 1008.5
20260503081001 58 301 19.0 22.0 0.00 0.02 0.02 87 1008.4
20260503080457 59 294 19.0 26.0 0.00 0.02 0.02 85 1008.4
20260503072934 62 300 19.0 27.0 0.00 0.02 0.02 76 1007.8
20260503072431 62 293 19.0 26.0 0.00 0.02 0.02 77 1007.9
20260503071928 63 319 14.0 24.0 0.00 0.02 0.02 76 1008.0
20260503071425 62 322 19.0 29.0 0.00 0.02 0.02 75 1008.1
20260503070921 62 319 19.0 30.0 0.00 0.02 0.02 75 1007.8
20260503070418 62 289 19.0 29.0 0.00 0.02 0.02 75 1007.7
20260503054832 59 309 20.0 26.0 0.00 0.02 0.02 85 1008.0
20260503054328 59 296 24.0 30.0 0.00 0.02 0.02 85 1007.9
20260503053826 58 307 26.0 35.0 0.00 0.02 0.02 85 1008.0
20260503053324 57 337 22.0 29.0 0.00 0.02 0.02 87 1008.1
20260503052820 58 300 23.0 30.0 0.00 0.02 0.02 87 1008.2
20260503052317 59 333 14.0 22.0 0.00 0.02 0.02 86 1007.8
20260503051813 58 298 17.0 25.0 0.00 0.02 0.02 87 1007.9
20260503051309 57 318 13.0 17.0 0.00 0.02 0.02 88 1007.9
20260503050806 58 303 15.0 22.0 0.05 0.02 0.02 88 1008.0
20260503050303 58 313 18.0 23.0 0.05 0.02 0.02 87 1008.1
20260503045800 58 281 14.0 23.0 0.00 0.01 0.01 87 1007.9
20260503045258 58 297 13.0 21.0 0.00 0.01 0.01 85 1008.0
20260503044754 58 286 24.0 29.0 0.07 0.01 0.01 82 1008.1
20260503044251 59 320 22.0 35.0 0.07 0.01 0.01 83 1007.8
20260503043748 59 300 21.0 33.0 0.00 0.00 0.00 81 1007.8
20260503043245 60 296 16.0 24.0 0.00 0.00 0.00 80 1007.8
20260503042741 60 318 18.0 25.0 0.00 0.00 0.00 76 1007.8
20260503042238 60 316 19.0 30.0 0.00 0.00 0.00 74 1007.9
20260503041734 63 318 20.0 26.0 0.00 0.00 0.00 72 1007.5
20260503041232 62 315 25.0 31.0 0.00 0.00 0.00 69 1007.5
20260503040729 62 320 27.0 33.0 0.00 0.00 0.00 69 1007.7
20260503040227 62 326 13.0 27.0 0.00 0.00 0.00 73 1007.7
20260503035723 62 318 19.0 27.0 0.00 0.00 0.00 71 1007.7
20260503035221 62 320 24.0 29.0 0.00 0.00 0.00 71 1007.8
20260503034718 63 309 23.0 27.0 0.00 0.00 0.00 72 1007.7
20260503034215 62 310 27.0 31.0 0.00 0.00 0.00 72 1007.8
20260503033713 62 322 24.0 29.0 0.00 0.00 0.00 70 1007.9
20260503033210 62 310 24.0 34.0 0.00 0.00 0.00 72 1007.9
20260503032708 62 310 22.0 32.0 0.00 0.00 0.00 74 1007.8
20260503032206 61 314 19.0 30.0 0.00 0.00 0.00 78 1007.8
20260503031703 60 312 27.0 29.0 0.00 0.00 0.00 81 1007.9
20260503031201 60 323 25.0 30.0 0.00 0.00 0.00 84 1007.7
20260503030656 59 314 17.0 22.0 0.00 0.00 0.00 85 1008.1
20260503030154 58 296 13.0 23.0 0.00 0.00 0.00 85 1008.2
20260503025650 58 299 19.0 25.0 0.00 0.00 0.00 82 1008.5
20260503025148 59 307 16.0 25.0 0.00 0.00 0.00 79 1008.5
20260503024644 60 308 24.0 39.0 0.00 0.00 0.00 77 1008.7
20260503024142 61 331 28.0 41.0 0.00 0.00 0.00 75 1008.6
20260503023638 61 301 21.0 34.0 0.00 0.00 0.00 72 1008.5
20260503023136 61 309 16.0 26.0 0.00 0.00 0.00 72 1008.5
20260503022632 61 300 17.0 32.0 0.00 0.00 0.00 73 1008.5
20260503022126 61 316 23.0 29.0 0.00 0.00 0.00 73 1008.4
20260503021623 61 328 17.0 29.0 0.00 0.00 0.00 75 1008.4
20260503021120 60 341 21.0 30.0 0.00 0.00 0.00 75 1008.4
20260503020617 61 275 24.0 30.0 0.00 0.00 0.00 74 1008.4
20260503020115 62 313 27.0 31.0 0.00 0.00 0.00 73 1008.3
20260503015611 62 297 28.0 34.0 0.00 0.00 0.00 70 1008.4
20260503015108 62 291 24.0 30.0 0.00 0.00 0.00 73 1008.4
20260503014604 61 299 22.0 27.0 0.00 0.00 0.00 74 1008.4
20260503014102 62 330 26.0 33.0 0.00 0.00 0.00 74 1008.3
20260503013559 61 301 23.0 37.0 0.00 0.00 0.00 73 1008.6
20260503013057 62 303 19.0 31.0 0.00 0.00 0.00 71 1008.5
20260503012554 62 13 23.0 30.0 0.00 0.00 0.00 72 1008.6
20260503012050 62 317 25.0 34.0 0.00 0.00 0.00 71 1008.5
20260503011547 62 345 23.0 34.0 0.00 0.00 0.00 71 1008.2
20260503011044 61 330 24.0 31.0 0.00 0.00 0.00 73 1008.4
20260503010540 61 297 24.0 32.0 0.00 0.00 0.00 75 1008.2
20260503010038 61 335 29.0 33.0 0.00 0.00 0.00 74 1008.2
20260503005535 61 359 17.0 30.0 0.00 0.00 0.00 75 1008.6
20260503005032 61 328 24.0 32.0 0.00 0.00 0.00 76 1008.2
20260503004528 61 334 22.0 29.0 0.00 0.00 0.00 77 1008.3
20260503004026 61 337 24.0 32.0 0.00 0.00 0.00 76 1008.4
20260503003523 61 326 27.0 33.0 0.00 0.00 0.00 76 1008.5
20260503003020 60 330 23.0 32.0 0.00 0.00 0.00 75 1008.3
20260503002517 60 331 26.0 34.0 0.00 0.00 0.00 75 1008.4
20260503002014 61 323 29.0 32.0 0.00 0.00 0.00 75 1008.6
20260503001510 60 328 21.0 32.0 0.00 0.00 0.00 75 1008.5
20260503001008 60 332 29.0 35.0 0.00 0.00 0.00 75 1008.6
20260503000505 60 325 30.0 37.0 0.00 0.00 0.00 73 1008.5
20260503000002 60 317 27.0 34.0 0.00 0.00 0.00 73 1008.5
20260502235458 60 312 24.0 33.0 0.00 0.00 0.00 73 1008.6
20260502234955 60 337 27.0 32.0 0.00 0.00 0.00 74 1008.4
20260502234452 60 345 22.0 31.0 0.00 0.00 0.00 75 1008.5
20260502233949 60 322 30.0 34.0 0.00 0.00 0.00 75 1008.5
20260502233444 60 341 33.0 35.0 0.00 0.00 0.00 74 1008.5
20260502232941 61 327 26.0 32.0 0.00 0.00 0.00 72 1008.6
20260502232438 61 349 19.0 32.0 0.00 0.00 0.00 71 1008.5
20260502231935 61 315 20.0 29.0 0.00 0.00 0.00 71 1008.5
20260502231432 61 322 18.0 30.0 0.00 0.00 0.00 71 1008.6
20260502230930 61 327 26.0 35.0 0.00 0.00 0.00 70 1008.7
20260502230428 61 336 27.0 32.0 0.00 0.00 0.00 70 1008.8
20260502225926 61 312 24.0 27.0 0.00 0.00 0.00 71 1008.6
20260502225422 60 343 25.0 31.0 0.00 0.00 0.00 70 1008.7
20260502224919 60 307 22.0 33.0 0.00 0.00 0.00 67 1008.7
20260502224414 60 283 25.0 30.0 0.00 0.00 0.00 68 1008.8
20260502223912 60 317 24.0 34.0 0.00 0.00 0.00 67 1008.7
20260502223410 60 308 23.0 33.0 0.00 0.00 0.00 69 1008.6
20260502222908 60 328 20.0 33.0 0.00 0.00 0.00 69 1008.5
20260502222405 60 314 21.0 31.0 0.00 0.00 0.00 67 1008.5
20260502221900 60 318 17.0 29.0 0.00 0.00 0.00 70 1008.6
20260502221357 60 339 23.0 32.0 0.00 0.00 0.00 70 1008.5
20260502220854 60 335 25.0 31.0 0.00 0.00 0.00 70 1008.4